Regional Weather Roundup
Issued by NWS Green Bay, WI

Home | Current Version | Previous Version | Graphics & Text | Print | Product List | Glossary Off
Versions: 1 2 3 4 5 6 7 8 9 10 11 12 13 14 15 16 17 18 19 20 21 22 23 24 25 26 27 28 29 30 31 32 33 34 35 36 37 38 39 40 41 42 43 44 45 46 47 48 49 50

276
ASUS43 KGRB 290200
RWRGRB

NORTH-CENTRAL AND NORTHEAST WISCONSIN REGIONAL WEATHER ROUNDUP
NATIONAL WEATHER SERVICE GREEN BAY WI
900 PM CDT SAT MAY 28 2016

WIZ005-009-010>012-018-019-290300-
NORTH CENTRAL WISCONSIN

CITY           SKY/WX    TMP DP  RH WIND       PRES   REMARKS
IRONWOOD       CLOUDY    55  55 100 CALM      29.79F VSB 3/4
MANITOWISH WTR NOT AVBL
ARBOR VITAE    NOT AVBL
EAGLE RIVER    NOT AVBL
LAND O LAKES   NOT AVBL
RHINELANDER    CLOUDY    67  62  84 CALM      29.82S
PHILLIPS       NOT AVBL
ANTIGO         NOT AVBL
TOMAHAWK       NOT AVBL
MERRILL        NOT AVBL
$$

WIZ013-073-290300-
NORTHEAST WISCONSIN

CITY           SKY/WX    TMP DP  RH WIND       PRES   REMARKS
IRON MOUNTAIN  CLEAR     67  59  75 CALM      29.81S
MARINETTE      CLEAR     72  63  73 S9        29.83F
$$

WIZ017-030-035>037-045-290300-
CENTRAL WISCONSIN

CITY           SKY/WX    TMP DP  RH WIND       PRES   REMARKS
MEDFORD        NOT AVBL
WAUSAU         CLOUDY    71  63  75 S9        29.79R
MOSINEE        MOCLDY    66  64  94 S5        29.82R
MARSHFIELD     MOCLDY    68  59  73 SW9       29.80R
WISC RAPIDS    CLOUDY    67  63  87 S6        29.82R
STEVENS POINT  NOT AVBL
WAUPACA        NOT AVBL
SHAWANO        NOT AVBL
CLINTONVILLE   NOT AVBL
WAUTOMA        CLOUDY    66  63  90 SE6       29.84S
$$

WIZ038-039-048-051-290300-
FOX VALLEY

CITY           SKY/WX    TMP DP  RH WIND       PRES   REMARKS
NWS GREEN BAY  MOCLDY    67  61  81 SW17G29   29.86R
APPLETON       MOCLDY    64  59  82 SW13      29.84S
OSHKOSH        LGT RAIN  63  59  87 S10       29.85F
FOND DU LAC    LGT RAIN  63  61  93 S5        29.86F
$$

WIZ022-050-052-290300-
EAST CENTRAL WISCONSIN

CITY           SKY/WX    TMP DP  RH WIND       PRES   REMARKS
EPHRAIM        NOT AVBL
STURGEON BAY   NOT AVBL
MANITOWOC      NOT AVBL
SHEBOYGAN      MOCLDY    69  59  70 W22G30    29.91R
$$

LMZ563-521-522-541>543-290300-
LAKESHORE

STATION/POSITION TIME  TEMP    WIND        PRES    VSBY  WAVE
                       AIR SEA DIR/SP/G                  HT/PER
                 (UTC) (F)     (DEG/KT/KT) (MB)    (MI)  (FT/S)
SHEBOYGAN LKSHOR 0100   59     180/ 18/ 18 1011.5S
KEWAUNEE LKSHORE 0100   53                 1010.5
ALGOMA MARINA    0132          210/  9/ 11   N/A
NORTHPORT PIER   0100   62     160/ 11/ 18 1010.8S
N MID LAKE BUOY  0050   54 47  190/ 14/ 16 1011.4R         4/ 6
SISTER BAY LKSHO 0105   66     170/ 17/ 22   N/A
CHAMBERS ISLAND  0100   68     150/  5/ 15 1010.2S
MENOMINEE LKSHOR 0100   67                 1009.1
$$




USA.gov is the U.S. government's official web portal to all federal, state and local government web resources and services.